FW5667 Weather Reports


Display with metric or nautical units.
time (UTC)temp
F
wind
direction
speed
MPH
gust
MPH
rain 1hr
in
rain 24hr
in
rain mn
in
humidity
%
barometer
mb
20200330004554 54 140 6.0 13.0 0.00 0.04 0.03 63 1011.2
20200330004025 54 149 4.0 15.0 0.00 0.04 0.03 63 1011.1
20200330003527 54 182 6.0 15.0 0.00 0.04 0.03 62 1011.2
20200330003057 55 191 8.0 13.0 0.00 0.04 0.03 62 1011.2
20200330002523 55 201 4.0 16.0 0.00 0.04 0.03 64 1011.2
20200330002034 55 171 6.0 16.0 0.00 0.04 0.03 64 1011.2
20200330001640 55 187 5.0 15.0 0.00 0.04 0.03 63 1011.3
20200330001045 55 0 3.0 15.0 0.00 0.04 0.03 63 1011.3
20200330000527 56 176 7.0 15.0 0.00 0.04 0.03 63 1011.3
20200330000050 55 178 7.0 14.0 0.00 0.04 0.03 61 1011.3
20200329235525 56 199 5.0 17.0 0.00 0.04 0.03 61 1011.3
20200329235024 56 128 7.0 17.0 0.00 0.04 0.03 62 1011.3
20200329234542 56 214 6.0 19.0 0.00 0.04 0.03 64 1011.3
20200329234025 56 134 8.0 19.0 0.00 0.04 0.03 62 1011.4
20200329233526 56 193 7.0 17.0 0.00 0.04 0.03 63 1011.5
20200329233033 56 213 5.0 14.0 0.00 0.04 0.03 61 1011.5
20200329232526 56 147 6.0 18.0 0.00 0.04 0.03 60 1011.5
20200329232102 56 154 8.0 20.0 0.00 0.04 0.03 62 1011.6
20200329231533 56 191 11.0 20.0 0.00 0.04 0.03 64 1011.7
20200329231026 57 74 7.0 19.0 0.00 0.04 0.03 62 1011.7
20200329230525 58 181 9.0 19.0 0.00 0.04 0.03 63 1011.6
20200329230107 58 107 6.0 19.0 0.00 0.04 0.03 65 1011.6
20200329225533 59 157 9.0 19.0 0.00 0.04 0.03 63 1011.5
20200329225024 58 137 8.0 21.0 0.00 0.04 0.03 66 1011.4
20200329224552 58 153 10.0 21.0 0.00 0.04 0.03 65 1011.6
20200329224026 57 142 7.0 14.0 0.00 0.04 0.03 67 1011.6
20200329223525 56 150 7.0 16.0 0.00 0.04 0.03 69 1011.6
20200329223056 55 187 8.0 19.0 0.00 0.04 0.03 70 1011.5
20200329222525 56 148 10.0 19.0 0.00 0.04 0.03 69 1011.7
20200329222036 57 150 8.0 18.0 0.00 0.04 0.03 71 1011.7
20200329221535 58 148 8.0 17.0 0.00 0.04 0.03 69 1011.8
20200329221046 58 177 5.0 13.0 0.00 0.04 0.03 69 1011.9
20200329220525 59 146 6.0 17.0 0.00 0.04 0.03 67 1011.8
20200329220103 59 135 6.0 19.0 0.00 0.04 0.03 68 1012.0
20200329215526 57 177 10.0 19.0 0.00 0.05 0.03 70 1011.9
20200329215035 58 244 6.0 15.0 0.00 0.05 0.03 72 1012.1
20200329214653 57 51 4.0 11.0 0.00 0.05 0.03 75 1012.2
20200329214027 57 121 5.0 13.0 0.00 0.05 0.03 74 1012.3
20200329213525 55 78 6.0 16.0 0.00 0.05 0.03 77 1012.3
20200329213031 54 150 5.0 16.0 0.01 0.05 0.03 79 1012.4
20200329212526 55 125 8.0 16.0 0.01 0.05 0.03 78 1012.4
20200329212031 56 107 4.0 15.0 0.01 0.05 0.03 78 1012.4
20200329211542 55 141 8.0 15.0 0.01 0.05 0.03 77 1012.6
20200329211025 56 139 6.0 14.0 0.01 0.05 0.03 78 1012.5
20200329210524 54 136 3.0 11.0 0.01 0.05 0.03 84 1012.7
20200329210026 53 146 4.0 11.0 0.01 0.05 0.03 83 1012.8
20200329205525 52 225 3.0 7.0 0.01 0.05 0.03 86 1012.9
20200329205049 51 206 2.0 8.0 0.01 0.05 0.03 86 1012.9
20200329204540 50 250 3.0 9.0 0.01 0.05 0.03 88 1013.0
20200329204030 49 234 3.0 9.0 0.01 0.05 0.03 87 1013.1
20200329203533 49 279 4.0 10.0 0.01 0.05 0.03 86 1013.1
20200329203058 49 265 4.0 10.0 0.00 0.04 0.02 85 1013.1
20200329202532 50 202 2.0 14.0 0.00 0.04 0.02 85 1013.0
20200329202027 51 219 8.0 14.0 0.00 0.04 0.02 79 1013.0
20200329201620 55 167 5.0 18.0 0.00 0.04 0.02 77 1013.0
20200329201026 55 123 9.0 18.0 0.00 0.04 0.02 80 1012.6
20200329200526 53 139 4.0 14.0 0.00 0.04 0.02 85 1012.7
20200329200035 52 111 5.0 15.0 0.00 0.04 0.02 84 1012.9
20200329195526 52 147 6.0 15.0 0.00 0.05 0.02 84 1012.8
20200329195026 52 127 4.0 12.0 0.00 0.05 0.02 83 1013.0
20200329194628 52 128 5.0 14.0 0.00 0.05 0.02 82 1013.1
20200329194025 53 116 6.0 14.0 0.00 0.05 0.02 81 1013.1
20200329193526 53 139 2.0 15.0 0.00 0.05 0.02 81 1013.0
20200329193026 54 141 8.0 15.0 0.00 0.05 0.02 81 1013.3
20200329192529 53 113 5.0 15.0 0.00 0.05 0.02 84 1013.2
20200329192026 53 130 7.0 15.0 0.00 0.05 0.02 82 1013.3
20200329191603 52 148 6.0 12.0 0.00 0.05 0.02 85 1013.3
20200329191024 52 135 4.0 15.0 0.00 0.05 0.02 83 1013.3
20200329190536 52 121 6.0 17.0 0.00 0.05 0.02 84 1013.4
20200329190115 51 132 8.0 17.0 0.00 0.05 0.02 86 1013.3
20200329185527 51 148 6.0 15.0 0.00 0.05 0.02 86 1013.3
20200329185029 51 106 6.0 14.0 0.00 0.05 0.02 87 1013.4
20200329184526 51 138 5.0 12.0 0.00 0.05 0.02 86 1013.5
20200329184029 51 157 6.0 12.0 0.00 0.05 0.02 87 1013.4
20200329183526 51 101 3.0 12.0 0.00 0.05 0.02 88 1013.4
20200329183028 50 102 4.0 13.0 0.00 0.05 0.02 88 1013.4
20200329182527 50 183 6.0 14.0 0.00 0.05 0.02 87 1013.4
20200329182034 50 142 4.0 14.0 0.00 0.05 0.02 89 1013.4
20200329181532 50 139 5.0 14.0 0.00 0.05 0.02 89 1013.6
20200329181026 50 144 6.0 11.0 0.00 0.05 0.02 89 1013.5
20200329180530 49 132 3.0 13.0 0.00 0.05 0.02 90 1013.5
20200329180054 49 135 6.0 13.0 0.00 0.05 0.02 89 1013.5
20200329175524 49 138 8.0 13.0 0.00 0.05 0.02 88 1013.4
20200329175028 49 173 3.0 11.0 0.00 0.05 0.02 91 1013.3
20200329174640 49 155 6.0 12.0 0.00 0.05 0.02 89 1013.3
20200329174030 49 140 6.0 15.0 0.00 0.05 0.02 91 1013.4
20200329173529 49 137 6.0 15.0 0.00 0.05 0.02 91 1013.4
20200329173049 48 145 5.0 11.0 0.00 0.05 0.02 92 1013.3
20200329172523 48 128 4.0 9.0 0.00 0.05 0.02 92 1013.3
20200329172023 48 128 4.0 9.0 0.00 0.05 0.02 92 1013.4
20200329171532 48 114 3.0 8.0 0.00 0.05 0.02 93 1013.3
20200329171032 48 121 4.0 11.0 0.00 0.05 0.02 93 1013.3
20200329170529 48 170 4.0 11.0 0.00 0.05 0.02 93 1013.3
20200329170028 47 140 3.0 9.0 0.00 0.05 0.02 93 1013.2
20200329165523 47 161 3.0 10.0 0.00 0.06 0.02 92 1013.3
20200329165024 47 158 4.0 10.0 0.00 0.06 0.02 93 1013.3
20200329164558 47 175 4.0 9.0 0.00 0.06 0.02 93 1013.2
20200329164037 47 136 2.0 9.0 0.00 0.06 0.02 93 1013.2
20200329163526 47 159 4.0 9.0 0.00 0.06 0.02 93 1013.1
20200329163033 47 138 2.0 8.0 0.00 0.06 0.02 93 1013.2
20200329162524 47 0 1.0 9.0 0.00 0.06 0.02 94 1013.2
20200329162026 47 137 3.0 9.0 0.00 0.06 0.02 94 1013.2
20200329161611 47 0 2.0 8.0 0.00 0.06 0.02 94 1013.2
20200329161024 47 160 3.0 10.0 0.00 0.06 0.02 94 1013.1
20200329160528 47 111 4.0 10.0 0.00 0.06 0.02 95 1013.1
20200329160047 47 142 3.0 8.0 0.00 0.06 0.02 95 1013.1
20200329155533 47 136 4.0 8.0 0.00 0.06 0.02 95 1013.1
20200329155029 47 111 3.0 9.0 0.00 0.06 0.02 96 1013.1
20200329154551 46 143 3.0 10.0 0.01 0.06 0.02 96 1013.2
20200329154025 46 145 3.0 10.0 0.01 0.06 0.02 97 1013.1
20200329153526 46 123 3.0 10.0 0.01 0.06 0.02 97 1013.2
20200329153117 46 101 5.0 10.0 0.01 0.06 0.02 97 1013.0
20200329152545 45 138 4.0 9.0 0.01 0.06 0.02 96 1012.9
20200329152026 45 146 3.0 8.0 0.01 0.06 0.02 96 1013.0
20200329151553 45 140 2.0 7.0 0.01 0.06 0.02 96 1013.1
20200329151026 45 152 1.0 7.0 0.01 0.06 0.02 96 1013.1
20200329150535 45 163 3.0 7.0 0.01 0.06 0.02 96 1012.9
20200329150025 45 144 2.0 5.0 0.01 0.06 0.02 97 1012.9
20200329145526 45 172 2.0 7.0 0.01 0.07 0.02 96 1012.9
20200329145027 45 145 3.0 7.0 0.01 0.07 0.02 96 1012.8
20200329144553 45 144 2.0 6.0 0.00 0.06 0.01 96 1012.9
20200329144023 45 94 2.0 7.0 0.00 0.06 0.01 96 1012.9
20200329143536 45 144 2.0 9.0 0.00 0.06 0.01 96 1012.8
20200329143029 45 138 4.0 11.0 0.00 0.06 0.01 96 1012.8
20200329142527 45 142 3.0 11.0 0.00 0.06 0.01 96 1012.8
20200329142024 45 149 2.0 9.0 0.00 0.06 0.01 96 1012.8
20200329141709 45 150 2.0 9.0 0.00 0.06 0.01 96 1012.8
20200329141027 45 136 1.0 7.0 0.00 0.06 0.01 96 1012.5
20200329140526 45 80 3.0 7.0 0.00 0.06 0.01 96 1012.7
20200329140047 45 124 1.0 6.0 0.00 0.06 0.01 96 1012.6
20200329135526 44 130 1.0 7.0 0.00 0.06 0.01 96 1012.6
20200329135045 45 126 1.0 7.0 0.00 0.06 0.01 96 1012.5
20200329134526 45 125 1.0 5.0 0.00 0.06 0.01 96 1012.5
20200329134035 45 84 0.0 4.0 0.00 0.06 0.01 96 1012.5
20200329133535 45 0 1.0 3.0 0.00 0.06 0.01 96 1012.5
20200329133037 45 171 0.0 3.0 0.00 0.06 0.01 96 1012.4
20200329132533 45 155 0.0 4.0 0.00 0.06 0.01 96 1012.4
20200329132026 45 142 2.0 5.0 0.00 0.06 0.01 96 1012.3
20200329131548 45 137 0.0 6.0 0.00 0.06 0.01 96 1012.3
20200329131026 45 172 2.0 6.0 0.00 0.06 0.01 96 1012.4
20200329130526 45 132 1.0 6.0 0.00 0.06 0.01 96 1012.4
20200329130035 45 139 3.0 6.0 0.00 0.06 0.01 96 1012.5
20200329125523 45 135 2.0 6.0 0.00 0.07 0.01 96 1012.4
20200329125032 45 156 1.0 6.0 0.00 0.07 0.01 96 1012.4
20200329124550 45 123 2.0 6.0 0.00 0.07 0.01 96 1012.3
20200329124025 45 173 2.0 6.0 0.00 0.07 0.01 96 1012.4
20200329123546 45 163 1.0 5.0 0.00 0.07 0.01 96 1012.4
20200329123109 45 128 1.0 6.0 0.00 0.07 0.01 96 1012.4
20200329122525 45 153 2.0 6.0 0.00 0.07 0.01 96 1012.5
20200329122028 46 0 1.0 6.0 0.00 0.07 0.01 96 1012.7
20200329121609 46 176 2.0 6.0 0.00 0.07 0.01 96 1012.6
20200329121034 46 201 1.0 8.0 0.00 0.07 0.01 96 1012.5
20200329120524 46 167 3.0 9.0 0.00 0.07 0.01 96 1012.4
20200329120059 46 175 4.0 9.0 0.00 0.07 0.01 96 1012.5
20200329115522 46 167 3.0 10.0 0.00 0.07 0.01 96 1012.4
20200329115026 46 159 4.0 10.0 0.00 0.07 0.01 96 1012.4
20200329114553 46 169 3.0 10.0 0.00 0.07 0.01 96 1012.3
20200329114026 46 147 3.0 10.0 0.00 0.07 0.01 96 1012.2
20200329113525 46 204 4.0 9.0 0.00 0.07 0.01 96 1012.3
20200329113030 46 136 4.0 10.0 0.00 0.07 0.01 96 1012.3
20200329112525 46 164 5.0 10.0 0.00 0.07 0.01 96 1012.4
20200329112035 46 132 5.0 10.0 0.00 0.07 0.01 95 1012.5
20200329111606 46 134 2.0 10.0 0.00 0.07 0.01 96 1012.3
20200329111024 46 155 3.0 9.0 0.00 0.07 0.01 95 1012.4
20200329110526 46 220 3.0 9.0 0.00 0.07 0.01 95 1012.3
20200329110042 46 192 3.0 11.0 0.00 0.07 0.01 95 1012.4
20200329105525 46 134 5.0 12.0 0.00 0.09 0.01 95 1012.2
20200329105031 46 99 5.0 15.0 0.00 0.09 0.01 95 1012.2
20200329104614 46 145 5.0 15.0 0.01 0.09 0.01 95 1012.3
20200329104025 46 117 6.0 11.0 0.01 0.09 0.01 95 1012.3
20200329103528 46 76 6.0 11.0 0.01 0.09 0.01 95 1012.4
20200329103114 46 113 5.0 12.0 0.01 0.09 0.01 95 1012.3
20200329102523 46 144 4.0 12.0 0.01 0.09 0.01 95 1012.3
20200329102029 46 222 5.0 13.0 0.01 0.09 0.01 95 1012.3
20200329101539 46 150 3.0 13.0 0.01 0.09 0.01 95 1012.3
20200329101028 46 128 4.0 13.0 0.01 0.09 0.01 94 1012.6
20200329100524 46 146 5.0 13.0 0.01 0.09 0.01 94 1012.4
20200329100043 46 156 5.0 14.0 0.01 0.09 0.01 94 1012.3
20200329095525 46 119 4.0 14.0 0.01 0.10 0.01 94 1012.5
20200329095035 46 92 4.0 13.0 0.01 0.10 0.01 94 1012.4
20200329094526 46 113 5.0 13.0 0.00 0.09 0.00 94 1012.5
20200329094026 46 128 5.0 11.0 0.00 0.09 0.00 94 1012.4
20200329093535 46 117 6.0 14.0 0.00 0.09 0.00 93 1012.5
20200329093105 46 108 5.0 14.0 0.00 0.09 0.00 93 1012.8
20200329092549 46 148 3.0 12.0 0.00 0.09 0.00 93 1012.6
20200329092026 46 82 3.0 12.0 0.00 0.09 0.00 93 1012.5
20200329091616 46 142 4.0 13.0 0.00 0.09 0.00 93 1012.6
20200329091035 46 116 4.0 15.0 0.00 0.09 0.00 93 1012.7
20200329090525 46 123 5.0 15.0 0.00 0.09 0.00 93 1012.7
20200329090113 46 107 5.0 11.0 0.00 0.09 0.00 93 1012.7
20200329085541 46 131 2.0 9.0 0.00 0.10 0.00 93 1012.8
20200329085049 46 95 4.0 14.0 0.00 0.10 0.00 93 1012.9
20200329084526 46 138 4.0 14.0 0.00 0.10 0.00 93 1012.9
20200329084025 46 130 4.0 11.0 0.00 0.10 0.00 93 1012.9
20200329083531 46 143 5.0 11.0 0.00 0.10 0.00 93 1013.0
20200329083110 46 146 5.0 11.0 0.00 0.10 0.00 93 1013.0
20200329082532 46 158 5.0 16.0 0.00 0.10 0.00 93 1013.0
20200329082043 46 140 4.0 16.0 0.00 0.10 0.00 93 1012.9
20200329081540 46 136 5.0 18.0 0.00 0.10 0.00 93 1013.0
20200329081024 46 73 6.0 18.0 0.00 0.10 0.00 93 1013.1
20200329080525 46 150 6.0 11.0 0.00 0.10 0.00 93 1013.0
20200329080128 46 150 4.0 11.0 0.00 0.10 0.00 93 1013.1
20200329075526 46 151 4.0 13.0 0.00 0.11 0.00 93 1012.9
20200329075025 46 167 4.0 13.0 0.00 0.11 0.00 93 1013.0
20200329074546 46 112 4.0 12.0 0.00 0.11 0.00 93 1013.1
20200329074027 46 98 5.0 12.0 0.00 0.11 0.00 94 1013.2
20200329073528 46 103 4.0 11.0 0.00 0.11 0.00 93 1013.2
20200329073047 46 92 4.0 11.0 0.00 0.11 0.00 93 1013.3
20200329072526 46 128 4.0 11.0 0.00 0.11 0.00 94 1013.2
20200329072032 46 113 3.0 9.0 0.00 0.11 0.00 94 1013.3
20200329071541 46 105 4.0 11.0 0.00 0.11 0.00 94 1013.3
20200329071025 46 132 5.0 11.0 0.00 0.11 0.00 94 1013.3
20200329070525 46 127 2.0 9.0 0.00 0.11 0.00 94 1013.2
20200329070103 46 93 3.0 9.0 0.00 0.11 0.00 95 1013.2
20200329065530 46 97 2.0 7.0 0.00 0.12 0.11 95 1013.4
20200329065028 46 0 2.0 8.0 0.00 0.12 0.11 95 1013.4
20200329064537 46 135 3.0 9.0 0.00 0.12 0.11 95 1013.5
20200329064025 46 126 3.0 9.0 0.00 0.12 0.11 95 1013.5
20200329063529 46 169 3.0 7.0 0.00 0.12 0.11 95 1013.5
20200329063052 46 131 3.0 8.0 0.00 0.12 0.11 95 1013.5
20200329062522 46 122 3.0 8.0 0.00 0.12 0.11 95 1013.7
20200329062025 47 124 1.0 7.0 0.00 0.12 0.11 95 1013.7
20200329061558 47 100 3.0 8.0 0.00 0.12 0.11 95 1013.8
20200329061025 47 132 3.0 9.0 0.00 0.12 0.11 95 1013.7
20200329060525 47 126 3.0 9.0 0.00 0.12 0.11 95 1013.8
20200329060118 47 140 3.0 8.0 0.00 0.12 0.11 95 1013.7
20200329055524 47 148 3.0 10.0 0.00 0.13 0.11 94 1013.8
20200329055032 47 123 2.0 10.0 0.00 0.13 0.11 94 1013.8
20200329054539 47 143 3.0 10.0 0.00 0.13 0.11 94 1013.8
20200329054026 47 131 4.0 11.0 0.00 0.13 0.11 94 1013.8
20200329053542 47 68 3.0 11.0 0.00 0.13 0.11 94 1013.9
20200329053042 47 151 3.0 9.0 0.00 0.13 0.11 94 1014.0
20200329052529 47 111 3.0 11.0 0.00 0.13 0.11 94 1014.0
20200329052025 47 156 2.0 11.0 0.01 0.13 0.11 94 1013.9
20200329051535 47 144 4.0 10.0 0.01 0.13 0.11 94 1014.0
20200329051032 47 105 3.0 9.0 0.01 0.13 0.11 94 1014.0
20200329050528 47 102 4.0 9.0 0.01 0.13 0.11 94 1014.0
20200329050118 47 127 4.0 9.0 0.01 0.13 0.11 94 1014.0
20200329045523 47 98 2.0 11.0 0.01 0.14 0.11 94 1014.0
20200329045030 47 131 4.0 11.0 0.01 0.14 0.11 94 1013.8
20200329044545 47 145 5.0 11.0 0.01 0.14 0.11 94 1014.0
20200329044024 47 155 5.0 12.0 0.01 0.14 0.11 94 1013.9
20200329043524 47 159 4.0 12.0 0.01 0.14 0.11 95 1014.0
20200329043041 47 142 4.0 11.0 0.01 0.14 0.11 95 1013.9
20200329042529 47 131 2.0 9.0 0.01 0.14 0.11 95 1013.9
20200329042031 47 135 3.0 13.0 0.00 0.13 0.10 95 1013.8
20200329041627 47 110 4.0 13.0 0.00 0.13 0.10 95 1013.9
20200329041030 47 121 4.0 10.0 0.00 0.13 0.10 95 1013.9
20200329040530 47 141 4.0 11.0 0.00 0.13 0.10 95 1013.9
20200329040024 47 113 3.0 11.0 0.00 0.13 0.10 95 1013.8
20200329035533 47 136 4.0 10.0 0.00 0.14 0.10 95 1013.8
20200329035023 47 141 4.0 10.0 0.00 0.14 0.10 95 1013.7
20200329034536 47 104 4.0 9.0 0.00 0.14 0.10 95 1013.8
20200329034025 47 153 4.0 9.0 0.00 0.14 0.10 95 1013.7
20200329033527 47 148 4.0 9.0 0.00 0.14 0.10 95 1013.7
20200329033027 47 132 5.0 10.0 0.00 0.14 0.10 95 1013.8
20200329032549 47 139 4.0 10.0 0.00 0.14 0.10 95 1013.8
20200329032037 47 150 5.0 10.0 0.00 0.14 0.10 95 1013.8
20200329031616 48 175 3.0 7.0 0.00 0.14 0.10 95 1013.9
20200329031032 48 106 3.0 7.0 0.00 0.14 0.10 95 1013.8
20200329030532 48 115 2.0 9.0 0.00 0.14 0.10 95 1013.8
20200329030054 48 123 3.0 9.0 0.00 0.14 0.10 95 1013.9
20200329025532 48 105 4.0 8.0 0.00 0.15 0.10 95 1013.9
20200329025034 48 140 2.0 7.0 0.00 0.15 0.10 94 1014.0
20200329024616 48 129 2.0 7.0 0.00 0.15 0.10 94 1014.0
20200329024035 48 125 1.0 6.0 0.00 0.15 0.10 94 1014.0
20200329023523 48 178 3.0 6.0 0.00 0.15 0.10 94 1014.1
20200329023027 48 153 0.0 5.0 0.00 0.15 0.10 94 1014.1
20200329022524 48 144 3.0 8.0 0.00 0.15 0.10 94 1014.2
20200329022032 48 128 3.0 9.0 0.00 0.15 0.10 93 1014.0
20200329021532 48 182 3.0 9.0 0.00 0.15 0.10 93 1014.2
20200329021026 49 199 3.0 8.0 0.00 0.15 0.10 92 1014.2
20200329020523 49 142 3.0 9.0 0.00 0.15 0.10 91 1014.2
20200329020109 49 165 2.0 10.0 0.00 0.15 0.10 90 1014.3
20200329015525 49 184 3.0 10.0 0.00 0.16 0.10 90 1014.3
20200329015024 49 169 4.0 10.0 0.00 0.16 0.10 90 1014.3
20200329014528 49 132 3.0 10.0 0.00 0.16 0.10 90 1014.4
20200329014027 49 173 4.0 7.0 0.00 0.16 0.10 90 1014.2
20200329013524 49 143 2.0 9.0 0.00 0.16 0.10 89 1014.3
20200329013102 49 136 4.0 11.0 0.00 0.16 0.10 89 1014.3
20200329012525 49 120 4.0 11.0 0.00 0.16 0.10 88 1014.4
20200329012025 49 171 4.0 9.0 0.00 0.16 0.10 88 1014.3
20200329011557 49 137 3.0 8.0 0.00 0.16 0.10 88 1014.4
20200329011035 49 143 3.0 10.0 0.00 0.16 0.10 88 1014.4
20200329010529 49 95 5.0 10.0 0.00 0.16 0.10 87 1014.4
20200329010029 50 127 4.0 15.0 0.00 0.16 0.10 87 1014.4
20200329005530 50 167 3.0 16.0 0.00 0.16 0.10 87 1014.5
20200329005024 50 161 7.0 16.0 0.00 0.16 0.10 86 1014.5